Location: Betpouey
(42.8833°N, 0.0333°E)
Time: 04:22:44
(UTC+00:00)

Meteor 2-13 Rocket - Pass Details

Date: 28 June 2021
Orbit: 935 x 958 km, 82.5° (Epoch: 26 July)

Event Time Altitude Azimuth Distance (km) Brightness Sun altitude
Exits shadow 23:25:38 48° 151° (SSE) 1,235 4.6 -23.3°
Maximum altitude 23:27:13 65° 94° (E) 1,050 4.5 -23.4°
Drops below altitude 10° 23:33:19 10° 14° (NNE) 2,696 7.7 -23.5°
Sets 23:35:50 0° 12° (NNE) 3,643 8.7 -23.6°
